SL-3 R/B, 7275

Orbit data source: Space-Track

SL-3 R/B, 7275 is space debris in LEO originally from a launch on Wed, 24 Apr 1974 UTC launched from the Plesetsk Missile And Space Complex (PKMTR). Debris objects in space refer to the collection of defunct objects orbiting the Earth. Examples of debris include non-operational satellites, rocket bodies, and fragments generated from explosions, collisions, or faulty payload assembly.

Loading next visibility...
Identifier
7275, 1974-025B
Orbit
LEO
Country
Flag of CISCIS
Related business
Manufacturer
Progress
Mission
Spacecraft
Bus & Motor
BLOK-E, Unknown motor
Mass
1,440 kg wet, 1,440 kg dry
Launch date (UTC)
1974-04-24 (52 years ago)
Launch vehicle
Unknown
Launch site
Plesetsk Missile And Space Complex (PKMTR)
Object type
Payload
Rocket body
Debris
Shape & HBR
Unknown
Radar Cross Section
Large (>1 m²)

Expand to show TLE details & history
Last TLE update: 3 days ago

TLE from 3 days ago
0 SL-3 R/B
1 07275U 74025B   26171.03772503 -.00000071  00000-0 -49192-4 0  9992
2 07275  81.2446  10.0907 0054930 338.6664  21.2215 14.07101466675597
Epoch: 2026-06-20T00:54Z
TLE epoch observation values (Epoch: 2026-06-20T00:54:19.442Z)
Latitude
-0°
Longitude
88.2516°
Altitude
835.114 km
Speed
7.454 km/s
True Right ascension
00h 40m 21s
True Declination
0° 00' 00"
Sunlit
Object was in daylight at epoch
Visualization orbit readout
Latitude
Unknown
Longitude
Unknown
Altitude
Unknown
Speed
Unknown
Apparent Right ascension
Unknown
Apparent Declination
Unknown
Sunlit
N/A
Visualization observer readout
Local Sidereal Time
00:50:29
Azimuth
Unknown
Elevation
Unknown
Doppler factor
Unknown
Orbital elements
Apogee altitude
906.28 km
Perigee altitude
826.691 km
Semi-major axis
7,244.622 km
Eccentricity
0.00549
Inclination
81.2446°
RAAN
10.0907°
Arg. of periapsis
338.6664°
True anomaly
21.45081°
Mean anomaly
21.2215°
Eccentric anomaly
21.33601°
Mean motion
3.51981 °/min
Orbital period
102.28 mins
BSTAR
-0.000049192
Loading maneuver chart data...
Computing Atmospheric mass density...
Loading historical data...
Loading historical data...
Loading historical data...
Loading historical data...
Loading historical data...
Loading historical data...
Loading historical data...

Documentation

Showing up to 5 results
|